map of AAE home
AAE - Airport
Location
City:  Annaba, El Tarf, Algeria
Name:Rabah Bitat
Old (Alt.):El Mellah
ICAO:DABB
IATA:AAE

Details
Type:Airport (Aerodrome, Airfield)
Use:Public/Civil, International (customs port of entry)
Latitude:3649'20"N (36.822222)
Longitude:748'34"E (7.809444)
Elevation:16 ft (5 m)
Variation:2.24E (WMM2015v2 magnetic declination)
0.13 annual change
Runways:2
Longest:9843 × 148 ft (3000 × 45 m)

Time
Time Zone:UTC+1
Local Time:

Weather
METAR:DABB 041400Z 30018G28KT 5000 RA SCT016 FEW023CB BKN026 09/07 Q1016
TAF:DABB 041100Z 0412/0512 32015G25KT 5000 -RA FEW020CB BKN020 PROB40
TEMPO 0414/0404 34020G40KT 2000 TSRA SCT015CB

Related Locations
Nearby:
Farthest:CHT: 11900 mi / 19151 km
Waitangi [Tuuta], CIT, NZ

Find:

   beyond  
but within

Other Information
Maps:
NOTAMs:
Links:
Sources:

  
  • flag of Algeria
  

Sectional Chart

Flight Planning
at skyvector.com

Satellite Image

Google Maps Satellite view

 

Copyright © 2004-2019 Karl L. Swartz. All rights reserved.
The Great Circle Mapper name and logo are trademarks of the Great Circle Mapper.
All other trademarks mentioned herein belong to their respective owners.
Please see credits for attibutions and further copyright information.

  Follow gcmap on Facebook Follow gcmap on Twitter GCmap on LinkedIn

hCard Microformat

Geo Microformat